SCP
1 1 1 1 1 1 1 1 1 1 1 1 1 1 1 1 1 1 1 1 1 1 1 1 1 1 1 1 1 1 1 1 1 1 0 0 0 0 0 0 0 0 0
2 2 1 1 1 1 1 1 1 1 1 0 1 1 1 1 1 1 1 1 1 1 1 1 1 1 1 1 1 1 1 1 1 1 1 1 0 0 0 0 0 0 0
2 2 1 1 1 1 1 1 0 0 0 0 0 0 0 0 1 1 1 1 1 1 1 1 1 1 1 1 1 1 1 1 1 1 1 1 1 0 0 0 0 0 0
1 1 1 1 1 0 0 0 0 0 0 0 0 0 0 0 0 0 0 1 1 1 1 1 1 1 1 1 1 1 1 1 1 1 1 1 1 0 0 0 0 0 0
1 1 1 0 0 0 0 0 0 0 0 0 0 0 0 0 0 0 0 0 0 1 1 1 1 1 1 1 1 1 1 1 1 1 1 1 1 1 1 0 0 0 0
0 0 0 0 0 0 0 0 0 0 0 0 0 0 0 0 0 0 0 0 0 0 1 1 1 1 1 1 1 1 1 1 1 1 1 1 1 1 1 1 1 1 0
0 0 0 0 0 0 0 0 0 0 0 0 0 0 0 0 0 0 0 0 0 0 0 0 1 1 1 1 1 1 1 1 1 1 1 1 1 1 1 1 1 1 1
0 0 0 0 0 0 0 0 0 0 0 0 0 0 0 0 0 0 0 0 0 0 0 0 1 1 1 1 1 1 1 1 1 1 1 1 1 1 1 1 1 1 1
0 0 0 0 0 0 0 0 0 0 0 0 0 0 0 0 0 0 0 0 0 0 0 0 1 1 1 1 1 1 1 1 1 1 1 1 1 1 1 1 1 1 1
0 0 0 0 0 0 0 0 0 0 0 0 0 0 0 0 0 0 0 0 0 0 0 0 0 0 1 1 1 1 1 1 1 1 1 1 1 1 1 1 1 1 1
0 0 0 0 0 0 0 0 1 1 1 0 0 0 0 0 0 0 0 0 0 0 0 0 0 0 0 0 1 1 1 1 1 1 1 1 1 1 1 1 1 1 1
1 1 1 1 1 1 1 1 1 1 1 1 0 0 0 0 0 0 0 0 0 0 0 0 0 0 0 0 0 1 1 1 1 1 1 1 1 1 1 1 1 1 1
1 1 1 2 2 1 1 1 2 2 2 1 1 0 0 0 0 0 0 0 0 0 0 0 0 0 0 0 0 0 0 0 0 0 0 0 1 1 1 1 1 1 1
1 2 2 2 2 2 2 2 2 2 2 2 1 1 0 0 0 0 0 0 0 0 0 1 1 0 0 0 0 0 0 0 0 0 0 0 0 0 0 1 1 1 1
2 2 3 3 3 3 3 3 3 3 3 3 2 2 1 1 0 0 0 0 0 0 0 1 1 1 1 0 0 0 0 0 0 0 0 0 0 0 0 0 0 0 0
2 3 3 3 3 4 5 5 4 4 4 4 4 3 2 1 1 1 1 1 1 0 0 0 1 1 1 1 0 0 0 0 0 0 0 0 0 0 0 0 0 0 0
2 3 3 3 4 4 5 5 5 5 5 4 4 3 2 2 2 2 1 1 1 1 1 1 1 1 1 1 1 1 1 0 0 0 0 0 0 0 0 0 0 0 0
2 3 3 3 3 4 4 4 5 4 3 3 3 2 2 2 2 2 2 2 1 1 1 1 1 1 2 2 2 2 1 0 0 0 0 0 0 0 0 0 0 0 0
3 3 3 3 3 3 3 3 4 3 2 2 2 1 2 2 2 2 2 2 2 2 2 2 2 2 2 2 3 2 1 1 0 0 0 0 0 0 0 0 0 0 0
3 3 3 3 3 3 3 3 3 3 2 2 2 1 1 2 2 2 2 3 3 2 2 2 2 2 3 3 3 3 2 1 1 0 0 0 0 0 0 0 0 0 0
3 3 3 3 3 2 2 2 2 2 2 2 2 2 2 2 2 2 2 2 3 3 3 2 2 2 3 3 4 3 2 1 1 1 0 0 0 0 0 0 0 0 0
4 4 3 3 2 2 1 1 2 2 2 2 2 2 2 2 1 1 1 1 1 2 2 2 2 2 2 3 4 4 3 2 2 1 1 1 0 0 0 0 0 0 0
4 4 4 3 3 2 1 0 1 1 2 2 2 2 2 2 1 1 1 1 1 1 1 1 1 1 2 3 3 3 3 3 2 2 2 1 1 0 0 0 0 0 0
5 5 4 4 3 2 1 0 0 1 2 2 2 2 2 2 2 2 2 2 2 2 1 0 0 1 1 1 2 2 2 2 2 2 2 1 1 1 0 0 0 0 0
5 5 4 4 4 3 2 0 0 1 1 2 2 2 2 1 1 1 1 2 2 2 1 1 0 0 0 0 0 0 1 1 1 1 1 1 1 1 0 0 0 0 0
5 4 4 4 4 4 2 1 0 1 2 2 2 1 1 1 1 1 1 1 2 2 1 1 0 0 0 0 0 0 0 0 0 1 1 1 1 0 0 0 0 0 0
Wind_Speed
3 3 2 1 0 1 1 1 1 1 1 1 2 2 3 3 3 3 4 9 9 8 9 10 10 10 9 9 8 8 7 7 6 6 6 7 8 8 8 7 7 7 7
3 2 2 1 2 2 2 1 1 0 0 0 1 1 1 2 2 2 2 5 8 8 8 9 10 10 10 10 10 9 8 8 7 7 7 7 8 8 8 8 8 7 7
2 1 2 1 2 1 1 1 1 1 1 1 1 0 1 1 1 2 1 2 4 7 8 8 8 9 10 11 11 11 10 8 8 8 7 7 8 8 8 8 8 8 7
2 1 2 3 1 1 1 0 1 2 2 1 1 1 1 0 1 2 2 2 2 3 7 10 9 9 10 11 12 12 11 10 9 8 8 8 8 9 9 9 8 8 8
2 1 3 2 1 0 1 2 3 2 2 2 1 1 1 1 1 2 1 1 2 3 4 7 10 10 11 12 12 12 12 11 10 9 9 9 10 9 9 9 9 10 9
2 1 3 2 1 2 2 3 2 1 1 2 3 1 1 1 1 1 1 1 1 2 3 5 5 6 10 10 11 12 12 11 12 12 12 11 11 10 10 11 11 10 11
3 1 3 2 1 3 3 2 2 1 1 0 2 2 2 2 2 1 1 1 1 1 2 3 3 3 3 8 9 10 12 12 12 12 12 12 11 11 11 11 12 12 12
4 3 2 2 2 2 2 2 2 2 2 1 1 2 1 2 0 2 1 1 3 2 1 2 3 3 2 3 5 8 9 10 11 12 11 11 11 11 11 11 12 13 13
3 2 2 1 1 1 2 1 1 1 2 1 2 2 2 2 0 1 1 3 2 1 1 1 2 3 2 3 3 4 6 6 8 10 10 10 10 10 11 11 12 13 14
4 4 3 2 0 0 2 1 2 2 1 2 1 0 1 2 1 1 0 2 2 1 1 1 2 2 3 3 4 5 4 3 5 6 8 9 10 11 12 13 14 14 14
4 4 4 3 2 0 2 2 2 1 2 3 2 1 1 0 2 1 0 1 1 2 2 2 1 1 2 3 4 5 5 3 2 3 5 6 9 10 12 14 15 15 15
4 5 4 3 2 2 2 1 0 1 1 2 3 3 2 1 1 1 1 1 1 1 2 2 1 1 1 2 5 8 6 5 3 1 3 4 7 8 10 12 14 14 15
5 6 5 4 3 2 2 2 2 1 1 0 2 2 3 2 2 2 2 2 2 1 1 2 2 2 1 3 5 6 6 6 4 3 2 3 5 6 8 9 11 12 13
5 7 6 5 4 4 4 3 2 3 2 2 2 1 2 2 2 1 2 2 3 2 0 1 2 2 1 3 5 4 4 7 6 5 5 4 5 5 6 7 8 8 9
5 8 6 6 5 4 3 3 3 2 2 3 3 3 2 2 1 1 1 2 2 3 2 0 0 2 2 2 6 3 2 7 9 8 8 7 7 6 6 7 7 7 8
4 7 6 6 5 5 4 4 3 3 3 3 2 2 2 2 1 1 1 2 2 2 2 2 1 1 1 1 3 2 3 6 11 12 12 11 10 9 8 8 8 8 8
5 6 6 6 6 6 5 5 4 4 5 4 4 4 4 3 2 2 2 2 2 2 3 3 2 1 1 2 2 3 4 5 6 14 15 14 13 12 11 10 10 9 9
6 6 6 6 7 7 6 6 6 5 5 5 5 4 4 4 4 3 3 3 3 3 3 4 3 3 4 4 4 5 5 6 5 8 13 15 15 14 13 13 12 11 11
7 7 7 7 7 6 7 7 7 6 5 6 5 5 5 5 5 4 4 4 3 4 3 4 4 4 3 4 4 4 6 5 7 8 10 14 15 15 15 14 14 14 13
8 7 7 7 7 7 7 7 7 7 6 6 6 6 6 6 6 5 5 5 5 4 4 4 4 4 4 4 3 4 4 4 5 6 5 6 12 17 17 17 16 16 15
9 8 7 8 7 7 8 8 7 8 7 7 7 6 7 9 9 7 6 4 4 4 4 4 5 4 4 3 3 3 4 3 4 4 4 4 4 6 9 13 16 17 17
8 8 8 8 8 9 9 10 7 6 5 6 7 7 8 9 11 13 13 11 8 7 6 5 5 5 5 4 3 3 3 4 4 3 2 4 4 4 5 6 12 17 18
8 7 8 8 8 8 9 10 11 6 6 5 6 6 8 10 9 9 12 15 14 15 14 9 9 9 7 6 5 5 4 5 5 4 3 5 5 5 5 7 10 13 16
7 7 7 7 7 8 10 11 11 8 7 7 7 7 8 8 9 8 8 9 10 11 13 13 12 12 11 8 7 7 7 7 7 6 6 7 6 6 7 5 9 11 14
6 6 6 7 7 7 10 12 11 6 7 8 9 9 10 9 12 12 9 9 9 9 12 16 17 17 17 15 9 5 6 6 8 7 6 7 6 6 5 5 7 12 14
5 5 6 6 7 7 9 12 12 6 7 7 7 8 12 12 12 11 9 9 11 10 9 10 10 13 14 14 16 11 9 9 8 7 6 6 5 5 5 5 5 5 7
Wind_Direction
84 84 71 51 53 81 86 39 47 35 16 341 317 341 347 356 19 77 135 146 149 159 169 174 179 183 180 174 176 180 178 174 173 176 178 178 172 172 174 173 169 166 164
76 91 102 54 45 56 50 352 355 329 355 65 294 338 333 354 30 38 124 150 158 164 171 178 185 189 188 185 185 187 185 185 183 180 185 187 184 183 184 185 182 178 175
89 83 101 89 49 42 58 23 350 300 235 230 217 301 265 39 48 24 354 153 164 182 183 183 188 193 197 196 192 191 192 191 189 186 188 192 194 193 190 190 191 187 184
95 66 82 73 32 353 24 67 18 347 17 7 19 336 35 118 182 208 235 202 171 177 186 190 192 196 201 203 200 199 197 195 194 195 195 196 200 200 198 196 196 193 190
107 91 83 72 284 46 42 17 56 25 356 6 305 216 206 203 185 229 211 220 178 167 168 184 192 199 206 209 209 206 201 202 202 206 208 207 207 206 203 201 200 198 196
110 112 115 88 337 59 52 50 22 42 310 328 309 30 211 170 186 87 277 230 172 175 167 167 179 204 213 213 210 209 208 211 212 214 217 217 215 211 208 206 205 203 202
126 16 99 119 42 74 61 43 9 301 225 36 307 273 193 176 134 112 42 22 70 90 113 147 162 172 196 209 210 208 211 216 219 221 222 224 224 218 212 211 211 209 207
156 161 108 138 94 104 81 43 32 333 333 71 329 305 153 108 322 125 125 125 57 48 59 131 144 155 182 158 193 205 213 219 219 217 221 225 227 223 219 217 215 213 211
160 104 128 103 124 156 128 108 0 349 343 352 40 354 357 54 148 117 101 84 67 33 18 71 123 135 141 129 142 180 196 209 222 225 225 227 227 225 225 225 222 217 216
162 156 163 139 223 56 123 187 112 330 319 313 124 101 60 60 346 77 186 129 163 152 86 22 59 103 120 120 119 128 155 181 214 228 230 227 228 228 228 230 231 227 222
177 175 168 159 176 139 104 69 85 350 334 340 344 344 43 178 258 243 145 176 217 165 154 146 106 83 123 133 133 130 136 149 189 230 240 238 238 235 231 232 236 236 233
182 181 175 166 188 176 139 144 164 171 4 1 347 344 350 347 337 353 344 273 237 153 143 132 152 165 155 132 127 134 143 141 149 199 246 254 252 245 241 240 240 239 238
178 176 175 168 189 168 174 173 186 224 197 332 316 322 341 348 359 359 343 330 334 277 184 179 173 159 151 114 126 149 167 168 174 192 237 259 261 255 252 248 246 245 243
172 160 162 170 189 188 197 176 208 198 184 222 261 306 312 321 336 340 332 336 323 308 237 158 135 136 116 118 152 189 184 190 195 205 224 244 256 261 259 255 252 250 245
151 150 164 175 189 193 198 176 227 223 171 216 234 218 245 267 262 309 320 328 324 323 328 297 152 139 148 142 167 214 214 203 209 216 224 233 241 248 253 253 250 248 246
159 151 171 182 187 186 192 206 229 207 204 225 240 242 249 282 274 263 267 274 272 283 297 311 292 173 152 271 188 236 261 233 218 222 225 228 231 235 240 245 247 247 247
164 166 182 188 190 193 192 200 233 216 205 222 235 226 222 250 276 284 262 251 248 248 268 288 293 294 229 244 242 246 260 249 231 229 227 225 226 229 233 237 240 243 246
180 184 191 196 203 202 195 199 221 226 210 217 229 234 229 231 222 246 268 269 261 248 246 268 278 273 255 234 229 231 254 264 260 250 227 222 222 225 228 232 235 238 241
189 193 197 203 210 209 201 204 213 227 226 224 225 229 231 234 235 234 242 257 267 268 244 252 264 260 251 245 240 242 253 255 263 269 232 219 222 225 228 231 232 233 235
194 199 200 206 210 215 211 208 210 217 227 230 229 229 232 233 232 231 241 240 248 261 264 259 258 257 249 237 222 232 254 247 252 268 269 230 221 225 229 231 231 232 232
201 202 204 209 212 216 219 213 213 218 219 227 231 231 234 236 235 233 242 240 247 248 256 258 258 260 257 255 248 245 259 266 257 250 252 253 232 223 226 234 236 235 232
204 199 204 212 215 222 215 207 207 230 225 228 235 236 240 235 233 231 236 240 239 244 253 260 268 266 266 265 266 267 266 269 272 265 267 269 262 251 238 223 224 224 226
204 205 206 212 219 223 214 201 205 221 239 243 245 246 253 253 236 228 229 233 239 241 236 241 255 259 264 267 270 270 265 263 262 269 283 271 261 260 255 264 256 230 223
204 209 213 217 223 224 209 204 205 219 238 246 247 248 249 257 260 251 245 238 231 234 231 230 238 246 250 250 250 253 256 264 260 251 239 253 252 250 257 253 253 242 228
207 210 213 220 226 226 207 203 199 221 236 245 248 249 247 248 249 248 249 251 251 248 245 237 225 230 235 240 239 248 253 257 263 257 237 238 244 246 246 245 244 241 232
212 217 219 220 226 229 209 203 199 223 240 248 251 251 249 248 251 244 241 248 252 252 255 261 244 239 241 242 233 228 237 246 254 258 243 238 243 244 256 246 242 239 232